DECAYED

CZ-6A DEB, 61116 (Decayed)

Orbit data source: Space-Track

CZ-6A DEB, 61116 was space debris in LEO originally from a launch on Tue, 06 Aug 2024 UTC launched from the Taiyaun Space Center, China (TSC). Debris objects in space refer to the collection of defunct objects orbiting the Earth. Examples of debris include non-operational satellites, rocket bodies, and fragments generated from explosions, collisions, or faulty payload assembly.

Not visible in the next 10 days
Identifier
61116, 2024-140PJ
Orbit
Decayed
Country
Flag of CNCN / PRC
Related business
Manufacturer
SAST
Mission
Decayed spacecraft
Bus & Motor
Unknown
Mass
Unknown
Launch date (UTC)
2024-08-06 (2 years ago)
Launch vehicle
Unknown
Launch site
Taiyaun Space Center, China (TSC)
Object type
Payload
Rocket body
Debris
Shape & HBR
Unknown shape, 1.1 m
Radar Cross Section
Medium (>0.1 m² and <1 m²)

Expand to show TLE details & history
Last TLE update: 1 year ago

TLE from 1 year ago
0 CZ-6A DEB
1 61116U 24140PJ  25014.88252006  .06426783  11574+0  20825-1 0  9990
2 61116  89.1797 335.1960 0040522 137.8819 222.5596 15.97474805 23045
Epoch: 2025-01-14T21:10Z
TLE epoch observation values (Epoch: 2025-01-14T21:10:49.733Z)
Latitude
0.00004°
Longitude
-97.09406°
Altitude
304.663 km
Speed
7.713 km/s
True Right ascension
22h 20m 47s
True Declination
0° 00' 00"
Sunlit
Object was in daylight at epoch
Visualization orbit readout
Latitude
Unknown
Longitude
Unknown
Altitude
Unknown
Speed
Unknown
Apparent Right ascension
Unknown
Apparent Declination
Unknown
Sunlit
N/A
Visualization observer readout
Local Sidereal Time
08:42:18
Azimuth
Unknown
Elevation
Unknown
Doppler factor
Unknown
Orbital elements
Apogee altitude
305.101 km
Perigee altitude
251.156 km
Semi-major axis
6,656.265 km
Eccentricity
0.00405
Inclination
89.1797°
RAAN
335.196°
Arg. of periapsis
137.8819°
True anomaly
222.2467°
Mean anomaly
222.5596°
Eccentric anomaly
222.40304°
Mean motion
3.99666 °/min
Orbital period
90.08 mins
BSTAR
0.020825
Loading maneuver chart data...
Computing Atmospheric mass density...
Loading historical data...
Loading historical data...
Loading historical data...
Loading historical data...
Loading historical data...
Loading historical data...
Loading historical data...

Documentation

Showing up to 5 results
|